Date,TemperatureHighF,TemperatureAvgF,TemperatureLowF,DewpointHighF,DewpointAvgF,DewpointLowF,HumidityHigh,HumidityAvg,HumidityLow,PressureMaxIn,PressureMinIn,WindSpeedMaxMPH,WindSpeedAvgMPH,GustSpeedMaxMPH,PrecipitationSumIn
2013-6-1,74.9,61.3,50.5,51.7,48.8,44.6,91,66,37,30.29,30.08,13,2,14,0.00
2013-6-2,70.3,60.7,53.2,53.7,50.6,47.6,92,71,47,30.13,30.08,10,2,10,0.03
2013-6-3,73.8,61.3,51.5,55.2,51.5,48.5,91,72,45,30.16,30.10,11,2,11,0.00
2013-6-4,82.3,66.0,50.9,58.3,53.1,48.6,95,67,36,30.17,30.05,12,2,12,0.00
2013-6-5,79.6,66.7,52.8,58.6,54.1,48.1,90,66,44,30.12,30.05,14,2,16,0.00
2013-6-6,79.9,66.5,53.6,58.8,52.8,42.5,93,65,32,30.09,30.04,11,2,12,0.00
2013-6-7,70.2,62.1,57.8,56.4,48.9,40.4,79,63,43,30.19,30.06,18,4,21,0.00
2013-6-8,70.0,60.1,53.2,53.4,50.0,47.2,81,70,53,30.24,30.14,10,2,11,0.00
2013-6-9,69.6,59.4,51.2,50.8,48.2,45.2,88,67,46,30.16,30.05,14,3,14,0.00
2013-6-10,70.8,59.4,47.7,50.5,46.8,42.5,87,65,39,30.09,29.92,12,3,12,0.00
2013-6-11,66.3,57.8,50.9,49.8,46.2,43.6,81,66,47,30.15,29.98,21,6,24,0.00
2013-6-12,65.6,57.0,52.4,53.5,48.1,45.3,92,73,52,30.19,30.15,17,5,20,0.04
2013-6-13,68.5,58.3,51.7,54.9,51.0,48.8,94,78,53,30.26,30.18,11,2,11,0.04
2013-6-14,68.3,58.9,53.1,51.7,49.4,47.7,85,72,51,30.28,30.10,15,4,17,0.00
2013-6-15,79.8,63.3,46.6,56.8,51.5,45.0,96,69,35,30.10,29.96,10,2,11,0.00
2013-6-16,74.3,64.2,56.9,62.2,54.4,50.3,86,71,50,30.13,30.03,15,4,15,0.10
2013-6-17,77.9,64.8,56.2,57.5,53.2,50.2,86,68,41,30.13,29.93,20,4,22,0.00
2013-6-18,72.6,62.2,56.8,55.2,51.7,45.3,92,70,39,30.03,29.91,14,2,15,0.02
2013-6-19,64.7,58.2,54.8,56.9,52.0,49.3,90,80,58,30.06,29.96,17,4,17,0.15
2013-6-20,58.1,55.4,52.2,54.3,52.0,49.7,96,88,78,30.16,30.00,18,5,20,0.58
2013-6-21,71.8,59.3,51.8,56.4,53.2,51.0,98,82,56,30.21,30.16,9,2,11,0.02
2013-6-22,80.5,65.7,50.1,57.0,53.6,49.0,98,69,40,30.16,29.88,11,2,12,0.00
2013-6-23,69.9,64.9,60.5,64.4,60.1,55.0,94,85,68,29.89,29.63,18,1,21,0.15
2013-6-24,69.2,61.0,56.6,60.0,57.0,54.6,97,87,66,29.75,29.62,14,3,17,0.12
2013-6-25,74.6,61.2,55.5,60.0,56.5,54.4,97,86,52,29.91,29.72,23,2,27,0.53
2013-6-26,72.5,62.8,56.3,61.9,58.3,55.2,97,86,62,30.12,29.89,14,2,16,0.06
2013-6-27,71.6,64.8,58.9,65.2,61.8,57.8,98,90,76,30.24,30.09,5,1,6,0.07
2013-6-28,87.6,73.5,62.1,67.2,63.5,61.2,98,74,43,30.23,30.08,15,2,15,0.00
2013-6-29,87.2,74.7,64.8,65.4,62.6,59.8,92,68,44,30.15,30.02,8,1,9,0.00
2013-6-30,94.2,77.9,61.3,68.5,64.2,59.4,96,67,33,30.05,29.88,10,2,10,0.00